GFSNIL_prec_kuchsnow_153.txt.gz
Snowfall_Accumulation
0.0 0.0 0.0 0.0 0.1 0.1 0.1 0.0 0.0 0.0 0.0 0.0 0.0 0.0 0.0 0.0 0.0 0.0 0.0 0.0 0.0 0.0
0.1 0.2 0.2 0.1 0.1 0.1 0.1 0.0 0.1 0.0 0.0 0.0 0.0 0.0 0.0 0.0 0.0 0.0 0.0 0.0 0.0 0.0
0.4 0.3 0.4 0.2 0.2 0.2 0.1 0.0 0.0 0.1 0.1 0.1 0.0 0.0 0.0 0.0 0.0 0.0 0.0 0.0 0.0 0.0
1.5 0.6 0.6 0.8 1.1 0.7 0.7 0.2 0.1 0.1 0.2 0.3 0.2 0.1 0.1 0.1 0.1 0.0 0.0 0.0 0.0 0.0
6.6 8.5 4.6 5.6 4.3 5.1 5.0 2.3 2.0 1.6 1.1 1.1 0.6 1.2 0.3 0.4 1.6 1.4 0.0 0.0 0.0 0.0
5.5 8.1 13.5 12.2 11.0 9.0 8.0 7.4 7.0 5.7 4.8 4.4 5.1 4.6 7.4 3.8 1.6 1.5 2.7 2.0 0.7 0.0
8.0 1.2 4.4 10.7 8.7 6.7 6.5 8.6 11.0 14.4 14.3 12.2 8.0 8.9 7.4 7.0 7.4 4.0 5.5 5.6 0.7 1.0
2.1 1.9 0.5 0.9 2.4 2.0 1.8 3.7 9.3 10.3 10.6 9.1 7.6 7.1 4.5 2.9 7.2 6.3 6.0 9.2 6.5 3.8
0.4 0.4 0.6 0.3 0.4 0.1 0.0 0.0 0.5 0.5 0.6 4.0 3.2 2.1 0.8 0.5 1.8 3.5 2.7 2.9 2.6 2.0
0.1 0.1 0.1 0.1 0.0 0.1 0.2 0.0 0.0 0.0 0.0 0.0 0.2 0.3 0.2 0.0 0.2 0.4 1.1 1.1 0.8 0.7
0.0 0.0 0.0 0.0 0.0 0.0 0.0 0.0 0.0 0.0 0.0 0.0 0.0 0.0 0.0 0.0 0.0 0.0 0.0 0.0 0.2 0.2
0.4 0.2 0.2 0.0 0.0 0.0 0.0 0.0 0.0 0.0 0.0 0.0 0.0 0.0 0.0 0.0 0.0 0.0 0.0 0.0 0.0 0.0
1.6 0.9 3.4 3.6 1.7 2.4 0.1 0.3 0.0 0.0 0.0 0.0 0.0 0.0 0.0 0.0 0.1 0.2 0.1 0.1 0.1 0.0
3.4 1.3 4.4 5.4 4.0 3.3 2.6 4.1 3.4 0.1 2.5 2.4 0.1 0.0 0.0 0.0 0.1 0.5 1.7 0.2 0.1 0.2

GFSNIL_prec_kuchsnow_159.txt.gz
Snowfall_Accumulation
0.0 0.0 0.0 0.0 0.1 0.1 0.1 0.1 0.0 0.0 0.0 0.0 0.0 0.0 0.0 0.1 0.1 0.0 0.0 0.0 0.0 0.0
0.1 0.2 0.2 0.1 0.1 0.1 0.1 0.0 0.1 0.0 0.0 0.0 0.0 0.0 0.0 0.1 0.0 0.0 0.0 0.1 0.0 0.0
0.4 0.3 0.4 0.2 0.2 0.2 0.1 0.0 0.0 0.1 0.1 0.1 0.0 0.0 0.0 0.0 0.0 0.0 0.1 0.1 0.1 0.1
1.5 0.6 0.6 0.8 1.1 0.7 0.7 0.2 0.1 0.1 0.2 0.3 0.2 0.1 0.1 0.1 0.1 0.0 0.1 0.1 0.1 0.2
6.6 8.5 4.6 5.6 4.3 5.1 5.0 2.3 2.0 1.6 1.1 1.1 0.6 1.2 0.3 0.4 1.6 1.7 0.4 0.6 0.6 0.6
5.5 8.1 13.5 12.2 11.0 9.0 8.0 7.4 7.0 5.7 4.8 4.4 5.1 4.6 7.4 3.8 1.6 2.3 3.7 3.7 3.0 1.9
8.0 1.2 4.4 10.7 8.7 6.7 6.5 8.6 11.0 14.4 14.3 12.2 8.0 8.9 7.4 7.0 7.4 4.0 6.2 7.5 3.2 3.1
2.1 1.9 0.5 0.9 2.4 2.0 1.8 3.7 9.3 10.3 10.6 9.1 7.6 7.1 4.5 2.9 7.2 6.3 6.0 9.8 7.3 4.7
0.4 0.4 0.6 0.3 0.4 0.1 0.0 0.0 0.5 0.5 0.6 4.0 3.2 2.1 0.8 0.5 1.8 3.5 2.7 2.9 2.9 2.2
0.1 0.1 0.1 0.1 0.0 0.1 0.2 0.0 0.0 0.0 0.0 0.0 0.2 0.3 0.2 0.0 0.2 0.4 1.1 1.1 0.8 0.9
0.0 0.0 0.0 0.0 0.0 0.0 0.0 0.0 0.0 0.0 0.0 0.0 0.0 0.0 0.0 0.0 0.0 0.0 0.0 0.0 0.2 0.3
0.4 0.2 0.2 0.0 0.0 0.0 0.0 0.0 0.0 0.0 0.0 0.0 0.0 0.0 0.0 0.0 0.0 0.0 0.0 0.0 0.0 0.0
1.6 0.9 3.4 3.6 1.7 2.4 0.1 0.3 0.0 0.0 0.0 0.0 0.0 0.0 0.0 0.0 0.1 0.2 0.1 0.1 0.1 0.0
3.4 1.3 4.4 5.4 4.0 3.3 2.6 4.1 3.4 0.1 2.5 2.4 0.1 0.0 0.0 0.0 0.1 0.5 1.7 0.2 0.1 0.2

GFSNIL_prec_kuchsnow_162.txt.gz
Snowfall_Accumulation
0.0 0.0 0.0 0.0 0.1 0.1 0.1 0.1 0.0 0.0 0.0 0.0 0.0 0.0 0.0 0.1 0.1 0.1 0.1 0.1 0.1 0.1
0.1 0.2 0.2 0.1 0.1 0.1 0.1 0.0 0.1 0.0 0.0 0.0 0.0 0.0 0.0 0.1 0.0 0.0 0.1 0.2 0.1 0.1
0.4 0.3 0.4 0.2 0.2 0.2 0.1 0.0 0.0 0.1 0.1 0.1 0.0 0.0 0.0 0.0 0.0 0.0 0.1 0.2 0.2 0.3
1.5 0.6 0.6 0.8 1.1 0.7 0.7 0.2 0.1 0.1 0.2 0.3 0.2 0.1 0.1 0.1 0.1 0.0 0.1 0.1 0.2 0.2
6.6 8.5 4.6 5.6 4.3 5.1 5.0 2.3 2.0 1.6 1.1 1.1 0.6 1.2 0.3 0.4 1.6 1.7 0.4 0.6 0.6 0.8
5.5 8.1 13.5 12.2 11.0 9.0 8.0 7.4 7.0 5.7 4.8 4.4 5.1 4.6 7.4 3.8 1.6 2.3 3.7 3.7 3.1 2.1
8.0 1.2 4.4 10.7 8.7 6.7 6.5 8.6 11.0 14.4 14.3 12.2 8.0 8.9 7.4 7.0 7.4 4.0 6.2 7.5 3.2 3.1
2.1 1.9 0.5 0.9 2.4 2.0 1.8 3.7 9.3 10.3 10.6 9.1 7.6 7.1 4.5 2.9 7.2 6.3 6.0 9.8 7.3 4.7
0.4 0.4 0.6 0.3 0.4 0.1 0.0 0.0 0.5 0.5 0.6 4.0 3.2 2.1 0.8 0.5 1.8 3.5 2.7 2.9 2.9 2.2
0.1 0.1 0.1 0.1 0.0 0.1 0.2 0.0 0.0 0.0 0.0 0.0 0.2 0.3 0.2 0.0 0.2 0.4 1.1 1.1 0.8 0.9
0.0 0.0 0.0 0.0 0.0 0.0 0.0 0.0 0.0 0.0 0.0 0.0 0.0 0.0 0.0 0.0 0.0 0.0 0.0 0.0 0.2 0.3
0.4 0.2 0.2 0.0 0.0 0.0 0.0 0.0 0.0 0.0 0.0 0.0 0.0 0.0 0.0 0.0 0.0 0.0 0.0 0.0 0.0 0.0
1.6 0.9 3.4 3.6 1.7 2.4 0.1 0.3 0.0 0.0 0.0 0.0 0.0 0.0 0.0 0.0 0.1 0.2 0.1 0.1 0.1 0.0
3.4 1.3 4.4 5.4 4.0 3.3 2.6 4.1 3.4 0.1 2.5 2.4 0.1 0.0 0.0 0.0 0.1 0.5 1.7 0.2 0.1 0.2

GFSNIL_prec_kuchsnow_165.txt.gz
Snowfall_Accumulation
0.0 0.0 0.0 0.0 0.1 0.1 0.1 0.1 0.0 0.0 0.0 0.0 0.0 0.0 0.0 0.1 0.1 0.1 0.1 0.1 0.2 0.2
0.1 0.2 0.2 0.1 0.1 0.1 0.1 0.0 0.1 0.0 0.0 0.0 0.0 0.0 0.0 0.1 0.0 0.0 0.1 0.2 0.1 0.2
0.4 0.3 0.4 0.2 0.2 0.2 0.1 0.0 0.0 0.1 0.1 0.1 0.0 0.0 0.0 0.0 0.0 0.0 0.1 0.2 0.2 0.3
1.5 0.6 0.6 0.8 1.1 0.7 0.7 0.2 0.1 0.1 0.2 0.3 0.2 0.1 0.1 0.1 0.1 0.0 0.1 0.1 0.2 0.2
6.6 8.5 4.6 5.6 4.3 5.1 5.0 2.3 2.0 1.6 1.1 1.1 0.6 1.2 0.3 0.4 1.6 1.7 0.5 0.7 0.6 0.8
5.5 8.1 13.5 12.2 11.0 9.0 8.0 7.4 7.0 5.7 4.8 4.4 5.1 4.6 7.4 3.8 1.6 2.3 3.7 3.7 3.1 2.1
8.0 1.2 4.4 10.7 8.7 6.7 6.5 8.6 11.0 14.4 14.3 12.2 8.0 8.9 7.4 7.0 7.4 4.0 6.2 7.5 3.2 3.1
2.1 1.9 0.5 0.9 2.4 2.0 1.8 3.7 9.3 10.3 10.6 9.1 7.6 7.1 4.5 2.9 7.2 6.3 6.0 9.8 7.3 4.7
0.4 0.4 0.6 0.3 0.4 0.1 0.0 0.0 0.5 0.5 0.6 4.0 3.2 2.1 0.8 0.5 1.8 3.5 2.7 2.9 2.9 2.2
0.1 0.1 0.1 0.1 0.0 0.1 0.2 0.0 0.0 0.0 0.0 0.0 0.2 0.3 0.2 0.0 0.2 0.4 1.1 1.1 0.8 0.9
0.0 0.0 0.0 0.0 0.0 0.0 0.0 0.0 0.0 0.0 0.0 0.0 0.0 0.0 0.0 0.0 0.0 0.0 0.0 0.0 0.2 0.3
0.4 0.2 0.2 0.0 0.0 0.0 0.0 0.0 0.0 0.0 0.0 0.0 0.0 0.0 0.0 0.0 0.0 0.0 0.0 0.0 0.0 0.0
1.6 0.9 3.4 3.6 1.7 2.4 0.1 0.3 0.0 0.0 0.0 0.0 0.0 0.0 0.0 0.0 0.1 0.2 0.1 0.1 0.1 0.0
3.4 1.3 4.4 5.4 4.0 3.3 2.6 4.1 3.4 0.1 2.5 2.4 0.1 0.0 0.0 0.0 0.1 0.5 1.7 0.2 0.1 0.2

GFSNIL_prec_kuchsnow_168.txt.gz
Snowfall_Accumulation
0.0 0.0 0.0 0.0 0.1 0.1 0.1 0.1 0.0 0.0 0.0 0.0 0.0 0.0 0.0 0.1 0.1 0.1 0.1 0.1 0.2 0.2
0.1 0.2 0.2 0.1 0.1 0.1 0.1 0.0 0.1 0.0 0.0 0.0 0.0 0.0 0.0 0.1 0.0 0.0 0.1 0.2 0.1 0.3
0.4 0.3 0.4 0.2 0.2 0.2 0.1 0.0 0.0 0.1 0.1 0.1 0.0 0.0 0.0 0.0 0.0 0.0 0.1 0.2 0.2 0.3
1.5 0.6 0.6 0.8 1.1 0.7 0.7 0.2 0.1 0.1 0.2 0.3 0.2 0.1 0.1 0.1 0.1 0.0 0.1 0.1 0.2 0.2
6.6 8.5 4.6 5.6 4.3 5.1 5.0 2.3 2.0 1.6 1.1 1.1 0.6 1.2 0.3 0.4 1.6 1.7 0.5 0.7 0.6 0.8
5.5 8.1 13.5 12.2 11.0 9.0 8.0 7.4 7.0 5.7 4.8 4.4 5.1 4.6 7.4 3.8 1.6 2.3 3.7 3.7 3.1 2.1
8.0 1.2 4.4 10.7 8.7 6.7 6.5 8.6 11.0 14.4 14.3 12.2 8.0 8.9 7.4 7.0 7.4 4.0 6.2 7.5 3.2 3.1
2.1 1.9 0.5 0.9 2.4 2.0 1.8 3.7 9.3 10.3 10.6 9.1 7.6 7.1 4.5 2.9 7.2 6.3 6.0 9.8 7.3 4.7
0.4 0.4 0.6 0.3 0.4 0.1 0.0 0.0 0.5 0.5 0.6 4.0 3.2 2.1 0.8 0.5 1.8 3.5 2.7 2.9 2.9 2.2
0.1 0.1 0.1 0.1 0.0 0.1 0.2 0.0 0.0 0.0 0.0 0.0 0.2 0.3 0.2 0.0 0.2 0.4 1.1 1.1 0.8 0.9
0.0 0.0 0.0 0.0 0.0 0.0 0.0 0.0 0.0 0.0 0.0 0.0 0.0 0.0 0.0 0.0 0.0 0.0 0.0 0.0 0.2 0.3
0.4 0.2 0.2 0.0 0.0 0.0 0.0 0.0 0.0 0.0 0.0 0.0 0.0 0.0 0.0 0.0 0.0 0.0 0.0 0.0 0.0 0.0
1.6 0.9 3.4 3.6 1.7 2.4 0.1 0.3 0.0 0.0 0.0 0.0 0.0 0.0 0.0 0.0 0.1 0.2 0.1 0.1 0.1 0.0
3.4 1.3 4.4 5.4 4.0 3.3 2.6 4.1 3.4 0.1 2.5 2.4 0.1 0.0 0.0 0.0 0.1 0.5 1.7 0.2 0.1 0.2